Location: Newark
(46.7000°N, 60.6000°W)
Time: 15:04:45
(UTC+00:00)

A-11 Canister half - Pass Details

Date: 02 November 2020
Orbit: 1516 x 1684 km, 47.2° (Epoch: 03 December)

Event Time Altitude Azimuth Distance (km) Brightness Sun altitude
Rises 22:35:06 0° 225° (SW) 4,923 12.4 -19.3°
Reaches altitude 10° 22:38:21 10° 221° (SW) 3,940 11.7 -19.9°
Maximum altitude 22:48:08 56° 147° (SSE) 1,941 9.3 -21.5°
Enters shadow 22:52:43 33° 88° (E) 2,521 9.5 -22.3°
